Regional Weather Roundup
Issued by NWS Charleston, SC

Current Version | Previous Version | Text Only | Print | Product List | Glossary Off
Versions: 1 2 3 4 5 6 7 8 9 10 11 12 13 14 15 16 17 18 19 20 21 22 23 24 25 26 27 28 29 30 31 32 33 34 35 36 37 38 39 40 41 42 43 44 45 46 47 48 49 50
000 ASUS42 KCHS 222127 RWRCHS REGIONAL WEATHER ROUNDUP NATIONAL WEATHER SERVICE CHARLESTON SC 500 PM EDT MON MAY 22 2017 NOTE: "FAIR" INDICATES FEW OR NO CLOUDS BELOW 12,000 FEET WITH NO SIGNIFICANT WEATHER AND/OR OBSTRUCTIONS TO VISIBILITY. NOT ALL STATIONS ARE QUALITY CONTROLLED. USE DATA WITH CAUTION... ESPECIALLY DEWPOINT OBSERVATIONS. SCZ027-030-031-034>040-042>050-222200- ...SOUTHEAST SOUTH CAROLINA... CITY SKY/WX TMP DP RH WIND PRES REMARKS N CHARLESTON LGT RAIN 78 72 81 S13 29.95S WATERFRONT PRK N/A 78 74 87 S12 29.93F JOHNS ISLAND FAIR 79 73 83 S12 29.97R PINOPOLIS N/A 82 72 69 VRB2 29.86F MONCKS CORNER RAIN 79 72 78 SW8 29.95R SUMMERVILLE RAIN 73 72 94 SW3 29.96R BEAUFORT MCAS RAIN 77 76 96 S3 29.97R FOG BEAUFORT ARPT TSTM 77 73 88 S3 29.97R HILTON HEAD IS CLOUDY 79 75 89 S9 29.98R WALTERBORO CLOUDY 72 68 88 CALM 29.98R ALLENDALE CLOUDY 75 72 88 CALM 29.96R ...SOUTHERN MIDLANDS AND PEE DEE... CITY SKY/WX TMP DP RH WIND PRES REMARKS GEORGETOWN FAIR 79 72 78 S13 29.95F KINGSTREE FAIR 79 70 73 S5 29.93S ORANGEBURG RAIN 70 68 93 S14 29.97R FOG BARNWELL MOCLDY 75 73 94 E3 29.97R AIKEN RAIN 66 66 100 N3 30.02F MANNING TSTM 72 70 94 SW24G31 29.96R COLUMBIA TSTM 72 69 90 W8 29.99R VSB 3/4 SUMTER MOSUNNY 73 68 83 CALM 29.92S FLORENCE CLOUDY 82 70 66 NW9 29.91F THUNDER MYRTLE BEACH MOSUNNY 79 72 78 S18 29.95F N MYRTLE BEACH CLOUDY 79 72 79 S15 29.93F $$ GAZ063-065-086>088-099>101-113>116-118-119-134>141-150-222200- ...SOUTHEAST GEORGIA... CITY SKY/WX TMP DP RH WIND PRES REMARKS SAVANNAH ARPT HAIL 73 66 78 N14G46 29.98R VSB<1/4 HUNTER AAF CLOUDY 79 75 89 CALM 29.95R FORT STEWART PTSUNNY 79 68 68 S9G20 29.91F STATESBORO PTSUNNY 81 74 79 CALM 29.94R SYLVANIA MOCLDY 81 76 82 E3 29.95S CLAXTON FAIR N/A N/A N/A N5 29.92F ...CSRA...CENTRAL AND FAR SOUTHEAST GEORGIA... CITY SKY/WX TMP DP RH WIND PRES REMARKS THOMSON RAIN 71 71 97 SW3 30.00F FOG AUGUSTA-BUSH CLOUDY 77 71 82 N10 29.95S AUGUSTA-DANIEL LGT RAIN 73 68 84 NE8 29.97F SWAINSBORO FAIR 82 70 65 SW6 29.95F VIDALIA CLOUDY 86 72 62 NW3 29.93F HX 92 EASTMAN LGT RAIN 83 63 50 SE6 29.96S HAZLEHURST FAIR 89 67 48 S10 29.91F HX 92 ALMA CLOUDY 87 68 52 SW7 29.93F HX 90 WAYCROSS PTSUNNY 92 70 48 W10G16 29.92F HX 98 JESUP FAIR 84 68 58 S5 29.93F BAXLEY PTSUNNY 90 72 55 W9 29.92F HX 96 BRUNSWICK CLOUDY 75 75 100 SE6 29.93F SAINT SIMONS PTSUNNY 77 74 90 SE5 29.94F $$ SCZ027-028-034-036>038-045-046-048>050-GAZ119-141-222200- ...LAKE AND SUPPLEMENTAL COASTAL OBSERVATIONS... STATION/POSITION TIME TEMP WIND PRES WAVE SWELL AIR SEA DIR/SP/G HT/PER HT/PER/DIR (UTC) (F) (DEG/KT/KT) (MB) (FT/S) (FT/S/D) WINYAH BAY 2030 80 190/ 12 1014.0F LAKE MURRAY 2030 72 330/ 4/ 9 1013.9S ACE BASIN NERRS 2045 78 170/ 1 1015.0S FORT PULASKI 2100 78 80 180/ 6/ 10 1015.1 SAPELO ISLAND 2045 77 130/ 2 1015.0S $$ ANZ835-935-AMZ111-154-330-350-352-354-370-450-454-472-222200- ...C-MAN AND BUOY OBSERVATIONS... STATION/POSITION TIME TEMP WIND PRES WAVE SWELL AIR SEA DIR/SP/G HT/PER HT/PER/DIR (UTC) (F) (DEG/KT/KT) (MB) (FT/S) (FT/S/D) BUOY 41004 2110 78 78 190/ 12/ 16 1014.4 BUOY 41008 2050 77 78 170/ 12/ 14 1014.1F 2/ 4 2/130/ 6 FOLLY BEACH CMAN 2100 78 180/ 14/ 15 1015.0F CAPERS NEARSHORE 2108 80 78 200/ 14/ 17 1014.0F FRIPP NEARSHORE 2108 78 79 180/ 12/ 16 1014.4R STATION/POSITION TIME TEMP WIND PRES WAVE SWELL AIR SEA DIR/SP/G HT/PER HT/PER/DIR (UTC) (F) (DEG/KT/KT) (MB) (FT/S) (FT/S/D) 5E ST. MARYS GA 2100 79 N/A 3/ 3 FRYING PAN BUOY 2110 78 78 180/ 14/ 17 1014.3 BUOY 41025 2050 77 78 190/ 14/ 17 1014.9F 4/ 8 3/ 80/ 8 CAPE LOOKOUT NC 2100 78 200/ 13/ 16 1014.2F BUOY 41002 2050 76 79 170/ 4/ 8 1017.5F 3/ 8 3/ 30/ 8 BUOY 41010 2110 78 80 150/ 12/ 14 1016.1 ST AUGUSTINE FL 2100 78 81 150/ 17/ 20 1015.0F $$

USA.gov is the U.S. government's official web portal to all federal, state and local government web resources and services.